"TIPO_DATO";"VALORE";"ANNO";"MESE";"GIORNO";"DATA";"SDA"
"COC_ATTIVI";"1";"2020";"3";"9";"09/03/2020";"11"
"COC_ATTIVI";"1";"2020";"3";"10";"10/03/2020";"11"
"COC_ATTIVI";"1";"2020";"3";"11";"11/03/2020";"11"
"COC_ATTIVI";"1";"2020";"3";"12";"12/03/2020";"11"
"COC_ATTIVI";"1";"2020";"3";"13";"13/03/2020";"11"
"COC_ATTIVI";"1";"2020";"3";"14";"14/03/2020";"11"
"COC_ATTIVI";"5";"2020";"3";"15";"15/03/2020";"11"
"COC_ATTIVI";"12";"2020";"3";"16";"16/03/2020";"12"
"COC_ATTIVI";"25";"2020";"3";"17";"17/03/2020";"12"
"COC_ATTIVI";"59";"2020";"3";"18";"18/03/2020";"12"
"COC_ATTIVI";"65";"2020";"3";"19";"19/03/2020";"12"
"COC_ATTIVI";"65";"2020";"3";"20";"20/03/2020";"12"
"COC_ATTIVI";"68";"2020";"3";"21";"21/03/2020";"12"
"COC_ATTIVI";"70";"2020";"3";"22";"22/03/2020";"12"
"COC_ATTIVI";"70";"2020";"3";"23";"23/03/2020";"13"
"COC_ATTIVI";"71";"2020";"3";"24";"24/03/2020";"13"
"COC_ATTIVI";"71";"2020";"3";"25";"25/03/2020";"13"
"COC_ATTIVI";"71";"2020";"3";"26";"26/03/2020";"13"
"COC_ATTIVI";"72";"2020";"3";"27";"27/03/2020";"13"
"COC_ATTIVI";"75";"2020";"3";"28";"28/03/2020";"13"
"COC_ATTIVI";"78";"2020";"3";"29";"29/03/2020";"13"
"COC_ATTIVI";"80";"2020";"3";"30";"30/03/2020";"14"
"COC_ATTIVI";"82";"2020";"3";"31";"31/03/2020";"14"
"COC_ATTIVI";"82";"2020";"4";"1";"01/04/2020";"14"
"COC_ATTIVI";"82";"2020";"4";"2";"02/04/2020";"14"
"COC_ATTIVI";"82";"2020";"4";"3";"03/04/2020";"14"
"COC_ATTIVI";"83";"2020";"4";"4";"04/04/2020";"14"
"COC_ATTIVI";"83";"2020";"4";"5";"05/04/2020";"14"
"COC_ATTIVI";"84";"2020";"4";"6";"06/04/2020";"15"
"COC_ATTIVI";"84";"2020";"4";"7";"07/04/2020";"15"
"COC_ATTIVI";"85";"2020";"4";"8";"08/04/2020";"15"
"COC_ATTIVI";"85";"2020";"4";"9";"09/04/2020";"15"
"COC_ATTIVI";"88";"2020";"4";"10";"10/04/2020";"15"
"COC_ATTIVI";"88";"2020";"4";"11";"11/04/2020";"15"
"COC_ATTIVI";"88";"2020";"4";"12";"12/04/2020";"15"
"COC_ATTIVI";"85";"2020";"4";"13";"13/04/2020";"16"
"COC_ATTIVI";"85";"2020";"4";"14";"14/04/2020";"16"
"COC_ATTIVI";"85";"2020";"4";"15";"15/04/2020";"16"
"COC_ATTIVI";"85";"2020";"4";"16";"16/04/2020";"16"
"COC_ATTIVI";"85";"2020";"4";"17";"17/04/2020";"16"
"COC_ATTIVI";"85";"2020";"4";"18";"18/04/2020";"16"
"COC_ATTIVI";"85";"2020";"4";"19";"19/04/2020";"16"
"COC_ATTIVI";"85";"2020";"4";"20";"20/04/2020";"17"
"COC_ATTIVI";"85";"2020";"4";"21";"21/04/2020";"17"
"COC_ATTIVI";"85";"2020";"4";"22";"22/04/2020";"17"
"COC_ATTIVI";"85";"2020";"4";"23";"23/04/2020";"17"
"COC_ATTIVI";"85";"2020";"4";"24";"24/04/2020";"17"
"COC_ATTIVI";"85";"2020";"4";"25";"25/04/2020";"17"
"COC_ATTIVI";"85";"2020";"4";"26";"26/04/2020";"17"
"COC_ATTIVI";"85";"2020";"4";"27";"27/04/2020";"18"
"COC_ATTIVI";"85";"2020";"4";"28";"28/04/2020";"18"
"COC_ATTIVI";"85";"2020";"4";"29";"29/04/2020";"18"
"COC_ATTIVI";"85";"2020";"4";"30";"30/04/2020";"18"
"COC_ATTIVI";"85";"2020";"5";"1";"01/05/2020";"18"
"COC_ATTIVI";"85";"2020";"5";"2";"02/05/2020";"18"
"COC_ATTIVI";"85";"2020";"5";"3";"03/05/2020";"18"
"COC_ATTIVI";"85";"2020";"5";"4";"04/05/2020";"19"
"COC_ATTIVI";"86";"2020";"5";"5";"05/05/2020";"19"
"COC_ATTIVI";"85";"2020";"5";"6";"06/05/2020";"19"
"COC_ATTIVI";"85";"2020";"5";"7";"07/05/2020";"19"
"COC_ATTIVI";"85";"2020";"5";"8";"08/05/2020";"19"
"COC_ATTIVI";"85";"2020";"5";"9";"09/05/2020";"19"
"COC_ATTIVI";"85";"2020";"5";"10";"10/05/2020";"19"
"COC_ATTIVI";"85";"2020";"5";"11";"11/05/2020";"20"
"COC_ATTIVI";"85";"2020";"5";"12";"12/05/2020";"20"
"COC_ATTIVI";"85";"2020";"5";"13";"13/05/2020";"20"
"COC_ATTIVI";"85";"2020";"5";"14";"14/05/2020";"20"
"COC_ATTIVI";"85";"2020";"5";"15";"15/05/2020";"20"
"COC_ATTIVI";"85";"2020";"5";"16";"16/05/2020";"20"
"COC_ATTIVI";"85";"2020";"5";"17";"17/05/2020";"20"
"COC_ATTIVI";"85";"2020";"5";"18";"18/05/2020";"21"
"COC_ATTIVI";"85";"2020";"5";"19";"19/05/2020";"21"
"COC_ATTIVI";"85";"2020";"5";"20";"20/05/2020";"21"
"COC_ATTIVI";"85";"2020";"5";"21";"21/05/2020";"21"
"COC_ATTIVI";"85";"2020";"5";"22";"22/05/2020";"21"
"COC_ATTIVI";"85";"2020";"5";"23";"23/05/2020";"21"
"COC_ATTIVI";"85";"2020";"5";"24";"24/05/2020";"21"
"COC_ATTIVI";"85";"2020";"5";"25";"25/05/2020";"22"
"COC_ATTIVI";"85";"2020";"5";"26";"26/05/2020";"22"
"COC_ATTIVI";"85";"2020";"5";"27";"27/05/2020";"22"
"COC_ATTIVI";"85";"2020";"5";"28";"28/05/2020";"22"
"COC_ATTIVI";"85";"2020";"5";"29";"29/05/2020";"22"
"COC_ATTIVI";"84";"2020";"5";"30";"30/05/2020";"22"
"COC_ATTIVI";"84";"2020";"5";"31";"31/05/2020";"22"
"COC_ATTIVI";"83";"2020";"6";"1";"01/06/2020";"23"
"COC_ATTIVI";"83";"2020";"6";"2";"02/06/2020";"23"
"COC_ATTIVI";"83";"2020";"6";"3";"03/06/2020";"23"
"COC_ATTIVI";"82";"2020";"6";"4";"04/06/2020";"23"
"COC_ATTIVI";"82";"2020";"6";"5";"05/06/2020";"23"
"COC_ATTIVI";"82";"2020";"6";"6";"06/06/2020";"23"
"COC_ATTIVI";"82";"2020";"6";"7";"07/06/2020";"23"
"COC_ATTIVI";"82";"2020";"6";"8";"08/06/2020";"24"
"COC_ATTIVI";"82";"2020";"6";"9";"09/06/2020";"24"
"COC_ATTIVI";"82";"2020";"6";"10";"10/06/2020";"24"
"COC_ATTIVI";"82";"2020";"6";"11";"11/06/2020";"24"
"COC_ATTIVI";"82";"2020";"6";"12";"12/06/2020";"24"
"COC_ATTIVI";"82";"2020";"6";"13";"13/06/2020";"24"
"COC_ATTIVI";"82";"2020";"6";"14";"14/06/2020";"24"
"COC_ATTIVI";"82";"2020";"6";"15";"15/06/2020";"25"
"COC_ATTIVI";"82";"2020";"6";"16";"16/06/2020";"25"
"COC_ATTIVI";"82";"2020";"6";"17";"17/06/2020";"25"
"COC_ATTIVI";"82";"2020";"6";"18";"18/06/2020";"25"
"COC_ATTIVI";"82";"2020";"6";"19";"19/06/2020";"25"
"COC_ATTIVI";"82";"2020";"6";"20";"20/06/2020";"25"
"COC_ATTIVI";"82";"2020";"6";"21";"21/06/2020";"25"
"COC_ATTIVI";"82";"2020";"6";"22";"22/06/2020";"26"
"COC_ATTIVI";"82";"2020";"6";"23";"23/06/2020";"26"
"COC_ATTIVI";"82";"2020";"6";"24";"24/06/2020";"26"
"COC_ATTIVI";"82";"2020";"6";"25";"25/06/2020";"26"
"COC_ATTIVI";"82";"2020";"6";"26";"26/06/2020";"26"
"COC_ATTIVI";"82";"2020";"6";"27";"27/06/2020";"26"
"COC_ATTIVI";"82";"2020";"6";"28";"28/06/2020";"26"
"COC_ATTIVI";"83";"2020";"6";"29";"29/06/2020";"27"
"COC_ATTIVI";"83";"2020";"6";"30";"30/06/2020";"27"
"COC_ATTIVI";"83";"2020";"7";"1";"01/07/2020";"27"
"COC_ATTIVI";"83";"2020";"7";"2";"02/07/2020";"27"
"COC_ATTIVI";"84";"2020";"7";"3";"03/07/2020";"27"
"COC_ATTIVI";"84";"2020";"7";"4";"04/07/2020";"27"
"COC_ATTIVI";"84";"2020";"7";"5";"05/07/2020";"27"
"COC_ATTIVI";"84";"2020";"7";"6";"06/07/2020";"28"
"COC_ATTIVI";"84";"2020";"7";"7";"07/07/2020";"28"
"COC_ATTIVI";"84";"2020";"7";"8";"08/07/2020";"28"
"COC_ATTIVI";"84";"2020";"7";"9";"09/07/2020";"28"
"COC_ATTIVI";"84";"2020";"7";"10";"10/07/2020";"28"
"COC_ATTIVI";"84";"2020";"7";"11";"11/07/2020";"28"
"COC_ATTIVI";"84";"2020";"7";"12";"12/07/2020";"28"
"COC_ATTIVI";"84";"2020";"7";"13";"13/07/2020";"29"
"COC_ATTIVI";"84";"2020";"7";"14";"14/07/2020";"29"
"COC_ATTIVI";"84";"2020";"7";"15";"15/07/2020";"29"
"COC_ATTIVI";"84";"2020";"7";"16";"16/07/2020";"29"
"COC_ATTIVI";"84";"2020";"7";"17";"17/07/2020";"29"
"COC_ATTIVI";"84";"2020";"7";"18";"18/07/2020";"29"
"COC_ATTIVI";"84";"2020";"7";"19";"19/07/2020";"29"
"COC_ATTIVI";"84";"2020";"7";"20";"20/07/2020";"30"
"COC_ATTIVI";"84";"2020";"7";"21";"21/07/2020";"30"
"COC_ATTIVI";"84";"2020";"7";"22";"22/07/2020";"30"
"COC_ATTIVI";"84";"2020";"7";"23";"23/07/2020";"30"
"COC_ATTIVI";"84";"2020";"7";"24";"24/07/2020";"30"
"COC_ATTIVI";"84";"2020";"7";"25";"25/07/2020";"30"
"COC_ATTIVI";"84";"2020";"7";"26";"26/07/2020";"30"
"COC_ATTIVI";"84";"2020";"7";"27";"27/07/2020";"31"
"COC_ATTIVI";"84";"2020";"7";"28";"28/07/2020";"31"
"COC_ATTIVI";"84";"2020";"7";"29";"29/07/2020";"31"
"COC_ATTIVI";"84";"2020";"7";"30";"30/07/2020";"31"
"COC_ATTIVI";"84";"2020";"7";"31";"31/07/2020";"31"
"COC_ATTIVI";"84";"2020";"8";"1";"01/08/2020";"31"
"COC_ATTIVI";"84";"2020";"8";"2";"02/08/2020";"31"
"COC_ATTIVI";"84";"2020";"8";"3";"03/08/2020";"32"
"COC_ATTIVI";"84";"2020";"8";"4";"04/08/2020";"32"
"COC_ATTIVI";"84";"2020";"8";"5";"05/08/2020";"32"
"COC_ATTIVI";"84";"2020";"8";"6";"06/08/2020";"32"
"COC_ATTIVI";"84";"2020";"8";"7";"07/08/2020";"32"
"COC_ATTIVI";"84";"2020";"8";"8";"08/08/2020";"32"
"COC_ATTIVI";"84";"2020";"8";"9";"09/08/2020";"32"
"COC_ATTIVI";"84";"2020";"8";"10";"10/08/2020";"33"
"COC_ATTIVI";"84";"2020";"8";"11";"11/08/2020";"33"
"COC_ATTIVI";"84";"2020";"8";"12";"12/08/2020";"33"
"COC_ATTIVI";"84";"2020";"8";"13";"13/08/2020";"33"
"COC_ATTIVI";"84";"2020";"8";"14";"14/08/2020";"33"
"COC_ATTIVI";"84";"2020";"8";"15";"15/08/2020";"33"
"COC_ATTIVI";"84";"2020";"8";"16";"16/08/2020";"33"
"COC_ATTIVI";"84";"2020";"8";"17";"17/08/2020";"34"
"COC_ATTIVI";"84";"2020";"8";"18";"18/08/2020";"34"
"COC_ATTIVI";"84";"2020";"8";"19";"19/08/2020";"34"
"COC_ATTIVI";"84";"2020";"8";"20";"20/08/2020";"34"
"COC_ATTIVI";"84";"2020";"8";"21";"21/08/2020";"34"
"COC_ATTIVI";"84";"2020";"8";"22";"22/08/2020";"34"
"COC_ATTIVI";"84";"2020";"8";"23";"23/08/2020";"34"
"COC_ATTIVI";"84";"2020";"8";"24";"24/08/2020";"35"
"COC_ATTIVI";"84";"2020";"8";"25";"25/08/2020";"35"
"COC_ATTIVI";"84";"2020";"8";"26";"26/08/2020";"35"
"COC_ATTIVI";"84";"2020";"8";"27";"27/08/2020";"35"
"COC_ATTIVI";"84";"2020";"8";"28";"28/08/2020";"35"
"COC_ATTIVI";"84";"2020";"8";"29";"29/08/2020";"35"
"COC_ATTIVI";"84";"2020";"8";"30";"30/08/2020";"35"
"COC_ATTIVI";"84";"2020";"8";"31";"31/08/2020";"36"
"COC_ATTIVI";"84";"2020";"9";"1";"01/09/2020";"36"
"COC_ATTIVI";"84";"2020";"9";"2";"02/09/2020";"36"
"COC_ATTIVI";"84";"2020";"9";"3";"03/09/2020";"36"
"COC_ATTIVI";"84";"2020";"9";"4";"04/09/2020";"36"
"COC_ATTIVI";"84";"2020";"9";"5";"05/09/2020";"36"
"COC_ATTIVI";"84";"2020";"9";"6";"06/09/2020";"36"
"COC_ATTIVI";"84";"2020";"9";"7";"07/09/2020";"37"
"COC_ATTIVI";"84";"2020";"9";"8";"08/09/2020";"37"
"COC_ATTIVI";"84";"2020";"9";"9";"09/09/2020";"37"
"COC_ATTIVI";"84";"2020";"9";"10";"10/09/2020";"37"
"COC_ATTIVI";"84";"2020";"9";"11";"11/09/2020";"37"
"COC_ATTIVI";"84";"2020";"9";"12";"12/09/2020";"37"
"COC_ATTIVI";"84";"2020";"9";"13";"13/09/2020";"37"
"COC_ATTIVI";"84";"2020";"9";"14";"14/09/2020";"38"
"COC_ATTIVI";"84";"2020";"9";"15";"15/09/2020";"38"
"COC_ATTIVI";"84";"2020";"9";"16";"16/09/2020";"38"
"COC_ATTIVI";"84";"2020";"9";"17";"17/09/2020";"38"
"COC_ATTIVI";"84";"2020";"9";"18";"18/09/2020";"38"
"COC_ATTIVI";"84";"2020";"9";"19";"19/09/2020";"38"
"COC_ATTIVI";"84";"2020";"9";"20";"20/09/2020";"38"
"COC_ATTIVI";"84";"2020";"9";"21";"21/09/2020";"39"
"COC_ATTIVI";"84";"2020";"9";"22";"22/09/2020";"39"
"COC_ATTIVI";"84";"2020";"9";"23";"23/09/2020";"39"
"COC_ATTIVI";"84";"2020";"9";"24";"24/09/2020";"39"
"COC_ATTIVI";"84";"2020";"9";"25";"25/09/2020";"39"
"COC_ATTIVI";"84";"2020";"9";"26";"26/09/2020";"39"
"COC_ATTIVI";"84";"2020";"9";"27";"27/09/2020";"39"
"COC_ATTIVI";"84";"2020";"9";"28";"28/09/2020";"40"
"COC_ATTIVI";"84";"2020";"9";"29";"29/09/2020";"40"
"COC_ATTIVI";"82";"2020";"9";"30";"30/09/2020";"40"
"COC_ATTIVI";"82";"2020";"10";"1";"01/10/2020";"40"
"COC_ATTIVI";"82";"2020";"10";"2";"02/10/2020";"40"
"COC_ATTIVI";"82";"2020";"10";"3";"03/10/2020";"40"
"COC_ATTIVI";"82";"2020";"10";"4";"04/10/2020";"40"
"COC_ATTIVI";"82";"2020";"10";"5";"05/10/2020";"41"
"COC_ATTIVI";"82";"2020";"10";"6";"06/10/2020";"41"
"COC_ATTIVI";"82";"2020";"10";"7";"07/10/2020";"41"
"COC_ATTIVI";"82";"2020";"10";"8";"08/10/2020";"41"
"COC_ATTIVI";"82";"2020";"10";"9";"09/10/2020";"41"
"COC_ATTIVI";"82";"2020";"10";"10";"10/10/2020";"41"
"COC_ATTIVI";"82";"2020";"10";"11";"11/10/2020";"41"
"COC_ATTIVI";"82";"2020";"10";"12";"12/10/2020";"42"
"COC_ATTIVI";"82";"2020";"10";"13";"13/10/2020";"42"
"COC_ATTIVI";"82";"2020";"10";"14";"14/10/2020";"42"
"COC_ATTIVI";"82";"2020";"10";"15";"15/10/2020";"42"
"COC_ATTIVI";"82";"2020";"10";"16";"16/10/2020";"42"
"COC_ATTIVI";"82";"2020";"10";"17";"17/10/2020";"42"
"COC_ATTIVI";"82";"2020";"10";"18";"18/10/2020";"42"
"COC_ATTIVI";"82";"2020";"10";"19";"19/10/2020";"43"
"COC_ATTIVI";"82";"2020";"10";"20";"20/10/2020";"43"
"COC_ATTIVI";"82";"2020";"10";"21";"21/10/2020";"43"
"COC_ATTIVI";"82";"2020";"10";"22";"22/10/2020";"43"
"COC_ATTIVI";"82";"2020";"10";"23";"23/10/2020";"43"
"COC_ATTIVI";"82";"2020";"10";"24";"24/10/2020";"43"
"COC_ATTIVI";"82";"2020";"10";"25";"25/10/2020";"43"
"COC_ATTIVI";"82";"2020";"10";"26";"26/10/2020";"44"
"COC_ATTIVI";"83";"2020";"10";"27";"27/10/2020";"44"
"COC_ATTIVI";"82";"2020";"10";"28";"28/10/2020";"44"
"COC_ATTIVI";"82";"2020";"10";"29";"29/10/2020";"44"
"COC_ATTIVI";"82";"2020";"10";"30";"30/10/2020";"44"
"COC_ATTIVI";"82";"2020";"10";"31";"31/10/2020";"44"
"COC_ATTIVI";"82";"2020";"11";"1";"01/11/2020";"44"
"COC_ATTIVI";"82";"2020";"11";"2";"02/11/2020";"45"
"COC_ATTIVI";"82";"2020";"11";"3";"03/11/2020";"45"
"COC_ATTIVI";"82";"2020";"11";"4";"04/11/2020";"45"
"COC_ATTIVI";"82";"2020";"11";"5";"05/11/2020";"45"
"COC_ATTIVI";"82";"2020";"11";"6";"06/11/2020";"45"
"COC_ATTIVI";"82";"2020";"11";"7";"07/11/2020";"45"
"COC_ATTIVI";"82";"2020";"11";"8";"08/11/2020";"45"
"COC_ATTIVI";"82";"2020";"11";"9";"09/11/2020";"46"
"COC_ATTIVI";"82";"2020";"11";"10";"10/11/2020";"46"
"COC_ATTIVI";"82";"2020";"11";"11";"11/11/2020";"46"
"COC_ATTIVI";"82";"2020";"11";"12";"12/11/2020";"46"
"COC_ATTIVI";"82";"2020";"11";"13";"13/11/2020";"46"
"COC_ATTIVI";"82";"2020";"11";"14";"14/11/2020";"46"
"COC_ATTIVI";"82";"2020";"11";"15";"15/11/2020";"46"
"COC_ATTIVI";"82";"2020";"11";"16";"16/11/2020";"47"
"COC_ATTIVI";"83";"2020";"11";"17";"17/11/2020";"47"
"COC_ATTIVI";"83";"2020";"11";"18";"18/11/2020";"47"
"COC_ATTIVI";"83";"2020";"11";"19";"19/11/2020";"47"
"COC_ATTIVI";"83";"2020";"11";"20";"20/11/2020";"47"
"COC_ATTIVI";"83";"2020";"11";"21";"21/11/2020";"47"
"COC_ATTIVI";"83";"2020";"11";"22";"22/11/2020";"47"
"COC_ATTIVI";"83";"2020";"11";"23";"23/11/2020";"48"
"COC_ATTIVI";"83";"2020";"11";"24";"24/11/2020";"48"
"COC_ATTIVI";"83";"2020";"11";"25";"25/11/2020";"48"
"COC_ATTIVI";"83";"2020";"11";"26";"26/11/2020";"48"
"COC_ATTIVI";"83";"2020";"11";"27";"27/11/2020";"48"
"COC_ATTIVI";"83";"2020";"11";"28";"28/11/2020";"48"
"COC_ATTIVI";"83";"2020";"11";"29";"29/11/2020";"48"
"COC_ATTIVI";"83";"2020";"11";"30";"30/11/2020";"49"
"COC_ATTIVI";"83";"2020";"12";"1";"01/12/2020";"49"
"COC_ATTIVI";"83";"2020";"11";"2";"02/12/2020";"49"
"COC_ATTIVI";"83";"2020";"11";"3";"03/12/2020";"49"
"COC_ATTIVI";"83";"2020";"11";"4";"04/12/2020";"49"
"COC_ATTIVI";"83";"2020";"11";"5";"05/12/2020";"49"
"COC_ATTIVI";"83";"2020";"11";"6";"06/12/2020";"49"
"COC_ATTIVI";"83";"2020";"11";"7";"07/12/2020";"50"
"COC_ATTIVI";"83";"2020";"11";"8";"08/12/2020";"50"
"COC_ATTIVI";"83";"2020";"11";"9";"09/12/2020";"50"
"COC_ATTIVI";"83";"2020";"11";"10";"10/12/2020";"50"
"COC_ATTIVI";"83";"2020";"11";"11";"11/12/2020";"50"
"COC_ATTIVI";"83";"2020";"11";"12";"12/12/2020";"50"
"COC_ATTIVI";"83";"2020";"11";"13";"13/12/2020";"50"
"COC_ATTIVI";"83";"2020";"11";"14";"14/12/2020";"51"
"COC_ATTIVI";"83";"2020";"11";"15";"15/12/2020";"51"
"COC_ATTIVI";"84";"2020";"11";"16";"16/12/2020";"51"
"COC_ATTIVI";"84";"2020";"11";"17";"17/12/2020";"51"
"COC_ATTIVI";"84";"2020";"11";"18";"18/12/2020";"51"
"COC_ATTIVI";"84";"2020";"11";"19";"19/12/2020";"51"
"COC_ATTIVI";"84";"2020";"11";"20";"20/12/2020";"51"
"COC_ATTIVI";"84";"2020";"11";"21";"21/12/2020";"52"
"COC_ATTIVI";"84";"2020";"11";"22";"22/12/2020";"52"
"COC_ATTIVI";"84";"2020";"11";"23";"23/12/2020";"52"
"COC_ATTIVI";"84";"2020";"11";"24";"24/12/2020";"52"
"COC_ATTIVI";"84";"2020";"11";"25";"25/12/2020";"52"
"COC_ATTIVI";"84";"2020";"11";"26";"26/12/2020";"52"
"COC_ATTIVI";"84";"2020";"11";"27";"27/12/2020";"52"
"COC_ATTIVI";"84";"2020";"11";"28";"28/12/2020";"53"
"COC_ATTIVI";"83";"2020";"11";"29";"29/12/2020";"53"
"COC_ATTIVI";"83";"2020";"11";"30";"30/12/2020";"53"
"COC_ATTIVI";"83";"2020";"11";"31";"31/12/2020";"53"
"COC_ATTIVI";"83";"2021";"1";"1";"01/01/2021";"1"
"COC_ATTIVI";"83";"2021";"1";"2";"02/01/2021";"1"
"COC_ATTIVI";"83";"2021";"1";"3";"03/01/2021";"1"
"COC_ATTIVI";"83";"2021";"1";"4";"04/01/2021";"2"
"COC_ATTIVI";"83";"2021";"1";"5";"05/01/2021";"2"
"COC_ATTIVI";"83";"2021";"1";"6";"06/01/2021";"2"
"COC_ATTIVI";"83";"2021";"1";"7";"07/01/2021";"2"
"COC_ATTIVI";"83";"2021";"1";"8";"08/01/2021";"2"
"COC_ATTIVI";"83";"2021";"1";"9";"09/01/2021";"2"
"COC_ATTIVI";"83";"2021";"1";"10";"10/01/2021";"2"
"COC_ATTIVI";"83";"2021";"1";"11";"11/01/2021";"3"
"COC_ATTIVI";"83";"2021";"1";"12";"12/01/2021";"3"
"COC_ATTIVI";"83";"2021";"1";"13";"13/01/2021";"3"
"COC_ATTIVI";"83";"2021";"1";"14";"14/01/2021";"3"
"COC_ATTIVI";"83";"2021";"1";"15";"15/01/2021";"3"
"COC_ATTIVI";"83";"2021";"1";"16";"16/01/2021";"3"
"COC_ATTIVI";"83";"2021";"1";"17";"17/01/2021";"3"
"COC_ATTIVI";"83";"2021";"1";"18";"18/01/2021";"4"
"COC_ATTIVI";"83";"2021";"1";"19";"19/01/2021";"4"
"COC_ATTIVI";"83";"2021";"1";"20";"20/01/2021";"4"
"COC_ATTIVI";"83";"2021";"1";"21";"21/01/2021";"4"
"COC_ATTIVI";"83";"2021";"1";"22";"22/01/2021";"4"
"COC_ATTIVI";"83";"2021";"1";"23";"23/01/2021";"4"
"COC_ATTIVI";"83";"2021";"1";"24";"24/01/2021";"4"
"COC_ATTIVI";"83";"2021";"1";"25";"25/01/2021";"5"
"COC_ATTIVI";"83";"2021";"1";"26";"26/01/2021";"5"
"COC_ATTIVI";"83";"2021";"1";"27";"27/01/2021";"5"
"COC_ATTIVI";"83";"2021";"1";"28";"28/01/2021";"5"
"COC_ATTIVI";"83";"2021";"1";"29";"29/01/2021";"5"
"COC_ATTIVI";"83";"2021";"1";"30";"30/01/2021";"5"
"COC_ATTIVI";"83";"2021";"1";"31";"31/01/2021";"5"
"COC_ATTIVI";"83";"2021";"2";"1";"01/02/2021";"6"
"COC_ATTIVI";"83";"2021";"2";"2";"02/02/2021";"6"
"COC_ATTIVI";"83";"2021";"2";"3";"03/02/2021";"6"
"COC_ATTIVI";"83";"2021";"2";"4";"04/02/2021";"6"
"COC_ATTIVI";"83";"2021";"2";"5";"05/02/2021";"6"
"COC_ATTIVI";"83";"2021";"2";"6";"06/02/2021";"6"
"COC_ATTIVI";"83";"2021";"2";"7";"07/02/2021";"6"
"COC_ATTIVI";"83";"2021";"2";"8";"08/02/2021";"7"
"COC_ATTIVI";"83";"2021";"2";"9";"09/02/2021";"7"
"COC_ATTIVI";"83";"2021";"2";"10";"10/02/2021";"7"
"COC_ATTIVI";"83";"2021";"2";"11";"11/02/2021";"7"
"COC_ATTIVI";"83";"2021";"2";"12";"12/02/2021";"7"
"COC_ATTIVI";"83";"2021";"2";"13";"13/02/2021";"7"
"COC_ATTIVI";"83";"2021";"2";"14";"14/02/2021";"7"
"COC_ATTIVI";"83";"2021";"2";"15";"15/02/2021";"8"
"COC_ATTIVI";"83";"2021";"2";"16";"16/02/2021";"8"
"COC_ATTIVI";"83";"2021";"2";"17";"17/02/2021";"8"
"COC_ATTIVI";"83";"2021";"2";"18";"18/02/2021";"8"
"COC_ATTIVI";"83";"2021";"2";"19";"19/02/2021";"8"
"COC_ATTIVI";"83";"2021";"2";"20";"20/02/2021";"8"
"COC_ATTIVI";"83";"2021";"2";"21";"21/02/2021";"8"
"COC_ATTIVI";"83";"2021";"2";"22";"22/02/2021";"9"
"COC_ATTIVI";"83";"2021";"2";"23";"23/02/2021";"9"
"COC_ATTIVI";"83";"2021";"2";"24";"24/02/2021";"9"
"COC_ATTIVI";"83";"2021";"2";"25";"25/02/2021";"9"
"COC_ATTIVI";"83";"2021";"2";"26";"26/02/2021";"9"
"COC_ATTIVI";"83";"2021";"2";"27";"27/02/2021";"9"
"COC_ATTIVI";"83";"2021";"2";"28";"28/02/2021";"9"
"COC_ATTIVI";"83";"2021";"3";"1";"01/03/2021";"10"
"COC_ATTIVI";"83";"2021";"3";"2";"02/03/2021";"10"
"COC_ATTIVI";"83";"2021";"3";"3";"03/03/2021";"10"
"COC_ATTIVI";"83";"2021";"3";"4";"04/03/2021";"10"
"COC_ATTIVI";"83";"2021";"3";"5";"05/03/2021";"10"
"COC_ATTIVI";"83";"2021";"3";"6";"06/03/2021";"10"
"COC_ATTIVI";"83";"2021";"3";"7";"07/03/2021";"10"
"COC_ATTIVI";"83";"2021";"3";"8";"08/03/2021";"11"
"COC_ATTIVI";"83";"2021";"3";"9";"09/03/2021";"11"
"COC_ATTIVI";"83";"2021";"3";"10";"10/03/2021";"11"
"COC_ATTIVI";"83";"2021";"3";"11";"11/03/2021";"11"
"COC_ATTIVI";"83";"2021";"3";"12";"12/03/2021";"11"
"COC_ATTIVI";"83";"2021";"3";"13";"13/03/2021";"11"
"COC_ATTIVI";"83";"2021";"3";"14";"14/03/2021";"11"
"COC_ATTIVI";"83";"2021";"3";"15";"15/03/2021";"12"
"COC_ATTIVI";"83";"2021";"3";"16";"16/03/2021";"12"
"COC_ATTIVI";"83";"2021";"3";"17";"17/03/2021";"12"
"COC_ATTIVI";"83";"2021";"3";"18";"18/03/2021";"12"
"COC_ATTIVI";"83";"2021";"3";"19";"19/03/2021";"12"
"COC_ATTIVI";"83";"2021";"3";"20";"20/03/2021";"12"
"COC_ATTIVI";"83";"2021";"3";"21";"21/03/2021";"12"
"COC_ATTIVI";"83";"2021";"3";"22";"22/03/2021";"13"
"COC_ATTIVI";"83";"2021";"3";"23";"23/03/2021";"13"
"COC_ATTIVI";"83";"2021";"3";"24";"24/03/2021";"13"
"COC_ATTIVI";"83";"2021";"3";"25";"25/03/2021";"13"
"COC_ATTIVI";"83";"2021";"3";"26";"26/03/2021";"13"
"COC_ATTIVI";"83";"2021";"3";"27";"27/03/2021";"13"
"COC_ATTIVI";"83";"2021";"3";"28";"28/03/2021";"13"
"COC_ATTIVI";"83";"2021";"3";"29";"29/03/2021";"14"
"COC_ATTIVI";"83";"2021";"3";"30";"30/03/2021";"14"
"COC_ATTIVI";"83";"2021";"3";"31";"31/03/2021";"14"
"COC_ATTIVI";"83";"2021";"4";"1";"01/04/2021";"14"
"COC_ATTIVI";"83";"2021";"4";"2";"02/04/2021";"14"
"COC_ATTIVI";"83";"2021";"4";"3";"03/04/2021";"14"
"COC_ATTIVI";"83";"2021";"4";"4";"04/04/2021";"14"
"COC_ATTIVI";"83";"2021";"4";"5";"05/04/2021";"15"
"COC_ATTIVI";"83";"2021";"4";"6";"06/04/2021";"15"
"COC_ATTIVI";"83";"2021";"4";"7";"07/04/2021";"15"
"COC_ATTIVI";"83";"2021";"4";"8";"08/04/2021";"15"
"COC_ATTIVI";"83";"2021";"4";"9";"09/04/2021";"15"
"COC_ATTIVI";"83";"2021";"4";"10";"10/04/2021";"15"
"COC_ATTIVI";"83";"2021";"4";"11";"11/04/2021";"15"
"COC_ATTIVI";"83";"2021";"4";"12";"12/04/2021";"16"
"COC_ATTIVI";"83";"2021";"4";"13";"13/04/2021";"16"
"COC_ATTIVI";"83";"2021";"4";"14";"14/04/2021";"16"
"COC_ATTIVI";"83";"2021";"4";"15";"15/04/2021";"16"
"COC_ATTIVI";"83";"2021";"4";"16";"16/04/2021";"16"
"COC_ATTIVI";"83";"2021";"4";"17";"17/04/2021";"16"
"COC_ATTIVI";"83";"2021";"4";"18";"18/04/2021";"16"
"COC_ATTIVI";"83";"2021";"4";"19";"19/04/2021";"17"
"COC_ATTIVI";"83";"2021";"4";"20";"20/04/2021";"17"
"COC_ATTIVI";"83";"2021";"4";"21";"21/04/2021";"17"
"COC_ATTIVI";"83";"2021";"4";"22";"22/04/2021";"17"
"COC_ATTIVI";"83";"2021";"4";"23";"23/04/2021";"17"
"COC_ATTIVI";"83";"2021";"4";"24";"24/04/2021";"17"
"COC_ATTIVI";"83";"2021";"4";"25";"25/04/2021";"17"
"COC_ATTIVI";"83";"2021";"4";"26";"26/04/2021";"18"
"COC_ATTIVI";"83";"2021";"4";"27";"27/04/2021";"18"
"COC_ATTIVI";"83";"2021";"4";"28";"28/04/2021";"18"
"COC_ATTIVI";"83";"2021";"4";"29";"29/04/2021";"18"
"COC_ATTIVI";"83";"2021";"4";"30";"30/04/2021";"18"
"COC_ATTIVI";"83";"2021";"5";"1";"01/05/2021";"18"
"COC_ATTIVI";"83";"2021";"5";"2";"02/05/2021";"18"
"COC_ATTIVI";"83";"2021";"5";"3";"03/05/2021";"19"
"COC_ATTIVI";"83";"2021";"5";"4";"04/05/2021";"19"
"COC_ATTIVI";"83";"2021";"5";"5";"05/05/2021";"19"
"COC_ATTIVI";"83";"2021";"5";"6";"06/05/2021";"19"
"COC_ATTIVI";"83";"2021";"5";"7";"07/05/2021";"19"
"COC_ATTIVI";"83";"2021";"5";"8";"08/05/2021";"19"
"COC_ATTIVI";"83";"2021";"5";"9";"09/05/2021";"19"
"COC_ATTIVI";"83";"2021";"5";"10";"10/05/2021";"20"
"COC_ATTIVI";"83";"2021";"5";"11";"11/05/2021";"20"
"COC_ATTIVI";"83";"2021";"5";"12";"12/05/2021";"20"
"COC_ATTIVI";"83";"2021";"5";"13";"13/05/2021";"20"
"COC_ATTIVI";"83";"2021";"5";"14";"14/05/2021";"20"
"COC_ATTIVI";"83";"2021";"5";"15";"15/05/2021";"20"
"COC_ATTIVI";"83";"2021";"5";"16";"16/05/2021";"20"
"COC_ATTIVI";"83";"2021";"5";"17";"17/05/2021";"21"
"COC_ATTIVI";"83";"2021";"5";"18";"18/05/2021";"21"
"COC_ATTIVI";"83";"2021";"5";"19";"19/05/2021";"21"
"COC_ATTIVI";"83";"2021";"5";"20";"20/05/2021";"21"
"COC_ATTIVI";"83";"2021";"5";"21";"21/05/2021";"21"
"COC_ATTIVI";"83";"2021";"5";"22";"22/05/2021";"21"
"COC_ATTIVI";"83";"2021";"5";"23";"23/05/2021";"21"
"COC_ATTIVI";"83";"2021";"5";"24";"24/05/2021";"22"
"COC_ATTIVI";"83";"2021";"5";"25";"25/05/2021";"22"
"COC_ATTIVI";"83";"2021";"5";"26";"26/05/2021";"22"
"COC_ATTIVI";"83";"2021";"5";"27";"27/05/2021";"22"
"COC_ATTIVI";"83";"2021";"5";"28";"28/05/2021";"22"
"COC_ATTIVI";"83";"2021";"5";"29";"29/05/2021";"22"
"COC_ATTIVI";"83";"2021";"5";"30";"30/05/2021";"22"
"COC_ATTIVI";"83";"2021";"5";"31";"31/05/2021";"23"
"COC_ATTIVI";"83";"2021";"6";"1";"01/06/2021";"23"
"COC_ATTIVI";"83";"2021";"6";"2";"02/06/2021";"23"
"COC_ATTIVI";"83";"2021";"6";"3";"03/06/2021";"23"
"COC_ATTIVI";"83";"2021";"6";"4";"04/06/2021";"23"
"COC_ATTIVI";"83";"2021";"6";"5";"05/06/2021";"23"
"COC_ATTIVI";"83";"2021";"6";"6";"06/06/2021";"23"
"COC_ATTIVI";"83";"2021";"6";"7";"07/06/2021";"24"
"COC_ATTIVI";"83";"2021";"6";"8";"08/06/2021";"24"
"COC_ATTIVI";"83";"2021";"6";"9";"09/06/2021";"24"
"COC_ATTIVI";"83";"2021";"6";"10";"10/06/2021";"24"
"COC_ATTIVI";"83";"2021";"6";"11";"11/06/2021";"24"
"COC_ATTIVI";"83";"2021";"6";"12";"12/06/2021";"24"
"COC_ATTIVI";"83";"2021";"6";"13";"13/06/2021";"24"